| time (UTC) | temp F | wind direction | speed MPH | gust MPH | rain 1hr in | rain 24hr in | rain mn in | humidity % | barometer mb |
| 20260510174505 | 74 | 316 | 5.0 | 9.0 | 0.00 | 0.00 | 0.00 | 49 | 925.4 |
| 20260510174004 | 74 | 276 | 3.0 | 10.0 | 0.00 | 0.00 | 0.00 | 51 | 925.3 |
| 20260510173505 | 73 | 272 | 3.0 | 9.0 | 0.00 | 0.00 | 0.00 | 52 | 925.5 |
| 20260510173005 | 73 | 307 | 4.0 | 10.0 | 0.00 | 0.00 | 0.00 | 53 | 925.5 |
| 20260510171505 | 73 | 277 | 5.0 | 10.0 | 0.00 | 0.00 | 0.00 | 52 | 925.7 |
| 20260510171005 | 73 | 286 | 3.0 | 8.0 | 0.00 | 0.00 | 0.00 | 52 | 925.8 |
| 20260510170505 | 72 | 279 | 5.0 | 9.0 | 0.00 | 0.00 | 0.00 | 52 | 925.8 |
| 20260510164505 | 72 | 269 | 2.0 | 12.0 | 0.00 | 0.00 | 0.00 | 55 | 926.0 |
| 20260510164005 | 72 | 282 | 4.0 | 10.0 | 0.00 | 0.00 | 0.00 | 55 | 926.0 |
| 20260510163505 | 71 | 274 | 5.0 | 9.0 | 0.00 | 0.00 | 0.00 | 55 | 926.0 |
| 20260510163005 | 70 | 289 | 4.0 | 8.0 | 0.00 | 0.00 | 0.00 | 57 | 926.0 |
| 20260510161504 | 70 | 245 | 4.0 | 9.0 | 0.00 | 0.00 | 0.00 | 54 | 926.0 |
| 20260510161005 | 70 | 253 | 5.0 | 10.0 | 0.00 | 0.00 | 0.00 | 54 | 926.0 |
| 20260510160505 | 70 | 266 | 4.0 | 9.0 | 0.00 | 0.00 | 0.00 | 55 | 926.0 |
| 20260510160004 | 71 | 238 | 3.0 | 9.0 | 0.00 | 0.00 | 0.00 | 55 | 925.9 |
| 20260510154505 | 70 | 294 | 6.0 | 8.0 | 0.00 | 0.00 | 0.00 | 54 | 925.8 |
| 20260510154005 | 70 | 152 | 4.0 | 7.0 | 0.00 | 0.00 | 0.00 | 55 | 925.9 |
| 20260510153504 | 70 | 299 | 2.0 | 12.0 | 0.00 | 0.00 | 0.00 | 56 | 926.0 |
| 20260510153005 | 70 | 282 | 4.0 | 9.0 | 0.00 | 0.00 | 0.00 | 57 | 925.9 |
| 20260510151504 | 70 | 275 | 5.0 | 10.0 | 0.00 | 0.00 | 0.00 | 57 | 925.9 |
| 20260510150504 | 70 | 284 | 5.0 | 9.0 | 0.00 | 0.00 | 0.00 | 56 | 925.9 |
| 20260510144004 | 68 | 295 | 3.0 | 9.0 | 0.00 | 0.00 | 0.00 | 59 | 925.9 |
| 20260510143504 | 68 | 272 | 5.0 | 10.0 | 0.00 | 0.00 | 0.00 | 59 | 925.8 |
| 20260510143004 | 68 | 270 | 6.0 | 10.0 | 0.00 | 0.00 | 0.00 | 59 | 925.9 |
| 20260510141504 | 67 | 313 | 4.0 | 7.0 | 0.00 | 0.00 | 0.00 | 62 | 925.8 |
| 20260510141005 | 67 | 285 | 4.0 | 7.0 | 0.00 | 0.00 | 0.00 | 63 | 925.7 |
| 20260510140505 | 67 | 276 | 4.0 | 8.0 | 0.00 | 0.00 | 0.00 | 62 | 925.8 |
| 20260510140006 | 67 | 304 | 4.0 | 10.0 | 0.00 | 0.00 | 0.00 | 64 | 925.8 |
| 20260510134506 | 65 | 289 | 3.0 | 6.0 | 0.00 | 0.00 | 0.00 | 65 | 925.8 |
| 20260510134006 | 65 | 288 | 4.0 | 7.0 | 0.00 | 0.00 | 0.00 | 65 | 925.6 |
| 20260510133506 | 65 | 273 | 3.0 | 7.0 | 0.00 | 0.00 | 0.00 | 67 | 925.7 |
| 20260510133006 | 64 | 285 | 3.0 | 8.0 | 0.00 | 0.00 | 0.00 | 67 | 925.8 |
| 20260510131505 | 63 | 293 | 3.0 | 7.0 | 0.00 | 0.00 | 0.00 | 70 | 925.7 |
| 20260510131005 | 62 | 270 | 3.0 | 7.0 | 0.00 | 0.00 | 0.00 | 71 | 925.8 |
| 20260510130506 | 62 | 280 | 4.0 | 8.0 | 0.00 | 0.00 | 0.00 | 71 | 925.8 |
| 20260510130006 | 61 | 261 | 2.0 | 8.0 | 0.00 | 0.00 | 0.00 | 74 | 925.8 |
| 20260510124505 | 57 | 288 | 3.0 | 6.0 | 0.00 | 0.00 | 0.00 | 81 | 925.7 |
| 20260510124006 | 55 | 291 | 3.0 | 7.0 | 0.00 | 0.00 | 0.00 | 87 | 925.7 |
| 20260510123505 | 53 | 291 | 5.0 | 8.0 | 0.00 | 0.00 | 0.00 | 98 | 925.8 |
| 20260510123005 | 51 | 289 | 2.0 | 7.0 | 0.00 | 0.00 | 0.00 | 100 | 925.7 |
| 20260510121005 | 44 | 90 | 0.0 | 0.0 | 0.00 | 0.00 | 0.00 | 99 | 925.4 |
| 20260510120505 | 43 | 5 | 0.0 | 1.0 | 0.00 | 0.00 | 0.00 | 99 | 925.3 |
| 20260510120006 | 42 | 336 | 0.0 | 1.0 | 0.00 | 0.00 | 0.00 | 99 | 925.2 |
| 20260510113506 | 39 | 7 | 0.0 | 1.0 | 0.00 | 0.00 | 0.00 | 99 | 925.0 |
| 20260510111506 | 38 | 27 | 0.0 | 1.0 | 0.00 | 0.00 | 0.00 | 99 | 924.9 |
| 20260510110005 | 37 | 0 | 0.0 | 2.0 | 0.00 | 0.00 | 0.00 | 99 | 924.7 |
| 20260510104505 | 37 | 152 | 1.0 | 1.0 | 0.00 | 0.00 | 0.00 | 99 | 924.4 |
| 20260510103505 | 37 | 41 | 0.0 | 2.0 | 0.00 | 0.00 | 0.00 | 99 | 924.3 |
| 20260510103005 | 37 | 103 | 0.0 | 1.0 | 0.00 | 0.00 | 0.00 | 99 | 924.3 |
| 20260510101505 | 37 | 26 | 0.0 | 1.0 | 0.00 | 0.00 | 0.00 | 99 | 924.0 |
| 20260510100505 | 37 | 37 | 0.0 | 1.0 | 0.00 | 0.00 | 0.00 | 99 | 923.9 |
| 20260510100005 | 37 | 163 | 0.0 | 1.0 | 0.00 | 0.00 | 0.00 | 99 | 923.9 |
| 20260510094505 | 37 | 218 | 0.0 | 1.0 | 0.00 | 0.00 | 0.00 | 99 | 923.8 |
| 20260510094005 | 37 | 357 | 1.0 | 1.0 | 0.00 | 0.00 | 0.00 | 99 | 923.9 |
| 20260510091505 | 37 | 352 | 0.0 | 1.0 | 0.00 | 0.00 | 0.00 | 99 | 923.8 |
| 20260510090505 | 37 | 354 | 0.0 | 1.0 | 0.00 | 0.00 | 0.00 | 99 | 923.6 |
| 20260510090005 | 37 | 156 | 1.0 | 1.0 | 0.00 | 0.00 | 0.00 | 99 | 923.6 |
| 20260510084504 | 37 | 104 | 0.0 | 1.0 | 0.00 | 0.00 | 0.00 | 99 | 923.5 |
| 20260510084004 | 37 | 138 | 0.0 | 2.0 | 0.00 | 0.00 | 0.00 | 99 | 923.4 |
| 20260510083505 | 37 | 110 | 1.0 | 2.0 | 0.00 | 0.00 | 0.00 | 99 | 923.4 |
| 20260510083005 | 37 | 164 | 0.0 | 2.0 | 0.00 | 0.00 | 0.00 | 99 | 923.3 |
| 20260510081505 | 37 | 239 | 0.0 | 2.0 | 0.00 | 0.00 | 0.00 | 99 | 923.2 |
| 20260510080505 | 37 | 186 | 0.0 | 2.0 | 0.00 | 0.00 | 0.00 | 99 | 923.2 |
| 20260510080004 | 37 | 42 | 1.0 | 2.0 | 0.00 | 0.00 | 0.00 | 99 | 923.2 |
| 20260510071505 | 38 | 18 | 0.0 | 1.0 | 0.00 | 0.00 | 0.00 | 98 | 923.0 |
| 20260510071005 | 38 | 222 | 0.0 | 1.0 | 0.00 | 0.00 | 0.00 | 98 | 923.0 |
| 20260510070004 | 38 | 125 | 0.0 | 1.0 | 0.00 | 0.00 | 0.00 | 98 | 922.9 |
| 20260510064504 | 38 | 183 | 0.0 | 1.0 | 0.00 | 0.00 | 0.00 | 98 | 922.9 |
| 20260510064004 | 38 | 34 | 1.0 | 2.0 | 0.00 | 0.00 | 0.00 | 98 | 922.9 |
| 20260510063004 | 38 | 118 | 0.0 | 1.0 | 0.00 | 0.00 | 0.00 | 98 | 923.0 |
| 20260510061505 | 39 | 62 | 0.0 | 1.0 | 0.00 | 0.00 | 0.00 | 98 | 923.0 |
| 20260510061004 | 39 | 117 | 0.0 | 1.0 | 0.00 | 0.00 | 0.00 | 98 | 923.0 |
| 20260510060504 | 39 | 83 | 0.0 | 1.0 | 0.00 | 0.00 | 0.00 | 98 | 923.0 |
| 20260510060006 | 39 | 127 | 0.0 | 1.0 | 0.00 | 0.00 | 0.00 | 98 | 923.0 |
| 20260510054504 | 40 | 51 | 0.0 | 1.0 | 0.00 | 0.00 | 0.00 | 98 | 922.9 |
| 20260510054004 | 40 | 94 | 0.0 | 1.0 | 0.00 | 0.00 | 0.00 | 98 | 922.9 |
| 20260510051504 | 41 | 42 | 0.0 | 1.0 | 0.00 | 0.00 | 0.00 | 98 | 922.9 |
| 20260510051004 | 41 | 53 | 0.0 | 1.0 | 0.00 | 0.00 | 0.00 | 98 | 923.0 |
| 20260510050504 | 41 | 115 | 0.0 | 1.0 | 0.00 | 0.00 | 0.00 | 98 | 923.0 |
| 20260510050005 | 41 | 64 | 0.0 | 1.0 | 0.00 | 0.00 | 0.00 | 97 | 922.9 |
| 20260510044505 | 41 | 133 | 0.0 | 1.0 | 0.00 | 0.00 | 0.00 | 97 | 923.0 |
| 20260510044006 | 42 | 134 | 0.0 | 1.0 | 0.00 | 0.00 | 0.00 | 97 | 923.0 |
| 20260510043506 | 42 | 162 | 0.0 | 0.0 | 0.00 | 0.00 | 0.00 | 97 | 922.9 |
| 20260510043006 | 42 | 61 | 0.0 | 1.0 | 0.00 | 0.00 | 0.00 | 97 | 922.9 |
| 20260510041505 | 42 | 144 | 0.0 | 1.0 | 0.00 | 0.00 | 0.00 | 97 | 922.8 |
| 20260510040505 | 43 | 119 | 0.0 | 1.0 | 0.00 | 0.00 | 0.00 | 97 | 922.9 |
| 20260510034505 | 43 | 36 | 0.0 | 1.0 | 0.00 | 0.00 | 0.00 | 96 | 922.8 |
| 20260510034006 | 43 | 36 | 0.0 | 1.0 | 0.00 | 0.00 | 0.00 | 96 | 922.8 |
| 20260510033506 | 44 | 14 | 0.0 | 1.0 | 0.00 | 0.00 | 0.00 | 97 | 922.8 |
| 20260510033006 | 44 | 4 | 0.0 | 2.0 | 0.00 | 0.00 | 0.00 | 96 | 922.8 |
| 20260510031505 | 44 | 9 | 0.0 | 1.0 | 0.00 | 0.00 | 0.00 | 96 | 922.8 |
| 20260510031005 | 44 | 60 | 0.0 | 1.0 | 0.00 | 0.00 | 0.00 | 96 | 922.8 |
| 20260510030506 | 44 | 60 | 0.0 | 1.0 | 0.00 | 0.00 | 0.00 | 96 | 922.8 |
| 20260510030005 | 45 | 8 | 0.0 | 1.0 | 0.00 | 0.00 | 0.00 | 95 | 922.8 |
| 20260510024505 | 46 | 51 | 0.0 | 1.0 | 0.00 | 0.00 | 0.00 | 95 | 922.8 |
| 20260510024005 | 46 | 126 | 0.0 | 1.0 | 0.00 | 0.00 | 0.00 | 95 | 922.8 |
| 20260510023506 | 46 | 99 | 1.0 | 2.0 | 0.00 | 0.00 | 0.00 | 95 | 922.8 |
| 20260510023007 | 46 | 106 | 0.0 | 2.0 | 0.00 | 0.00 | 0.00 | 95 | 922.9 |
| 20260510021506 | 46 | 1 | 0.0 | 1.0 | 0.00 | 0.00 | 0.00 | 94 | 922.6 |
| 20260510021005 | 46 | 20 | 0.0 | 1.0 | 0.00 | 0.00 | 0.00 | 94 | 922.5 |
| 20260510020505 | 46 | 80 | 0.0 | 1.0 | 0.00 | 0.00 | 0.00 | 94 | 922.5 |
| 20260510020005 | 46 | 56 | 1.0 | 2.0 | 0.00 | 0.00 | 0.00 | 94 | 922.5 |
| 20260510014505 | 47 | 88 | 0.0 | 1.0 | 0.00 | 0.00 | 0.00 | 92 | 922.1 |
| 20260510013505 | 48 | 51 | 0.0 | 0.0 | 0.00 | 0.00 | 0.00 | 92 | 922.0 |
| 20260510013005 | 48 | 345 | 0.0 | 2.0 | 0.00 | 0.00 | 0.00 | 92 | 921.9 |
| 20260510011505 | 49 | 42 | 0.0 | 1.0 | 0.00 | 0.00 | 0.00 | 90 | 921.7 |
| 20260510011006 | 49 | 65 | 0.0 | 1.0 | 0.00 | 0.00 | 0.00 | 90 | 921.6 |
| 20260510010506 | 50 | 83 | 0.0 | 1.0 | 0.00 | 0.00 | 0.00 | 90 | 921.5 |
| 20260510010005 | 50 | 78 | 0.0 | 1.0 | 0.00 | 0.00 | 0.00 | 88 | 921.4 |
| 20260510004504 | 52 | 58 | 0.0 | 1.0 | 0.00 | 0.00 | 0.00 | 86 | 921.1 |
| 20260510004005 | 53 | 55 | 0.0 | 1.0 | 0.00 | 0.00 | 0.00 | 85 | 921.1 |
| 20260510003505 | 53 | 119 | 0.0 | 1.0 | 0.00 | 0.00 | 0.00 | 84 | 921.1 |
| 20260510003005 | 54 | 108 | 0.0 | 2.0 | 0.00 | 0.00 | 0.00 | 83 | 921.0 |
| 20260510001504 | 56 | 177 | 0.0 | 2.0 | 0.00 | 0.00 | 0.00 | 80 | 921.0 |
| 20260510001005 | 57 | 58 | 0.0 | 2.0 | 0.00 | 0.00 | 0.00 | 78 | 920.9 |
| 20260510000505 | 58 | 111 | 0.0 | 2.0 | 0.00 | 0.00 | 0.00 | 77 | 921.0 |
| 20260510000005 | 59 | 237 | 1.0 | 3.0 | 0.00 | 0.00 | 0.00 | 76 | 920.9 |
| 20260509234504 | 62 | 0 | 1.0 | 3.0 | 0.00 | 0.00 | 0.00 | 68 | 920.7 |
| 20260509234005 | 63 | 26 | 1.0 | 3.0 | 0.00 | 0.00 | 0.00 | 65 | 920.5 |
| 20260509233005 | 65 | 353 | 2.0 | 5.0 | 0.00 | 0.00 | 0.00 | 61 | 920.4 |
| 20260509231505 | 67 | 8 | 2.0 | 3.0 | 0.00 | 0.00 | 0.00 | 58 | 920.3 |
| 20260509231005 | 68 | 13 | 2.0 | 6.0 | 0.00 | 0.00 | 0.00 | 54 | 920.3 |
| 20260509230505 | 68 | 255 | 1.0 | 5.0 | 0.00 | 0.00 | 0.00 | 55 | 920.2 |
| 20260509230005 | 68 | 237 | 2.0 | 7.0 | 0.00 | 0.00 | 0.00 | 54 | 920.3 |
| 20260509224504 | 68 | 354 | 2.0 | 5.0 | 0.00 | 0.00 | 0.00 | 55 | 920.4 |
| 20260509224006 | 69 | 200 | 2.0 | 6.0 | 0.00 | 0.00 | 0.00 | 54 | 920.3 |
| 20260509223504 | 69 | 279 | 3.0 | 5.0 | 0.00 | 0.00 | 0.00 | 53 | 920.4 |
| 20260509221504 | 69 | 277 | 6.0 | 10.0 | 0.00 | 0.00 | 0.00 | 53 | 920.5 |
| 20260509221005 | 69 | 114 | 2.0 | 6.0 | 0.00 | 0.00 | 0.00 | 54 | 920.5 |
| 20260509214505 | 68 | 344 | 3.0 | 8.0 | 0.00 | 0.00 | 0.00 | 56 | 920.4 |
| 20260509213504 | 68 | 13 | 3.0 | 7.0 | 0.00 | 0.00 | 0.00 | 56 | 920.4 |
| 20260509213005 | 67 | 309 | 3.0 | 9.0 | 0.00 | 0.00 | 0.00 | 57 | 920.4 |
| 20260509211505 | 65 | 235 | 3.0 | 7.0 | 0.00 | 0.00 | 0.00 | 60 | 920.5 |
| 20260509211004 | 65 | 232 | 2.0 | 7.0 | 0.00 | 0.00 | 0.00 | 60 | 920.4 |
| 20260509210505 | 65 | 268 | 3.0 | 7.0 | 0.00 | 0.00 | 0.00 | 60 | 920.3 |
| 20260509210004 | 65 | 296 | 3.0 | 7.0 | 0.00 | 0.00 | 0.00 | 60 | 920.3 |
| 20260509204504 | 65 | 345 | 3.0 | 7.0 | 0.00 | 0.00 | 0.00 | 59 | 920.3 |
| 20260509204004 | 65 | 268 | 4.0 | 8.0 | 0.00 | 0.00 | 0.00 | 58 | 920.3 |
| 20260509203504 | 65 | 276 | 4.0 | 7.0 | 0.00 | 0.00 | 0.00 | 59 | 920.2 |
| 20260509203005 | 65 | 325 | 3.0 | 8.0 | 0.00 | 0.00 | 0.00 | 59 | 920.3 |
| 20260509201504 | 65 | 276 | 3.0 | 9.0 | 0.00 | 0.00 | 0.00 | 59 | 920.1 |
| 20260509201005 | 65 | 343 | 3.0 | 7.0 | 0.00 | 0.00 | 0.00 | 59 | 920.1 |
| 20260509200504 | 65 | 267 | 3.0 | 7.0 | 0.00 | 0.00 | 0.00 | 59 | 920.0 |
| 20260509200004 | 65 | 309 | 3.0 | 10.0 | 0.00 | 0.00 | 0.00 | 60 | 920.0 |
| 20260509194506 | 65 | 292 | 3.0 | 7.0 | 0.00 | 0.00 | 0.00 | 59 | 920.0 |
| 20260509194005 | 65 | 290 | 3.0 | 7.0 | 0.00 | 0.00 | 0.00 | 60 | 919.9 |
| 20260509193506 | 65 | 315 | 3.0 | 8.0 | 0.00 | 0.00 | 0.00 | 59 | 919.9 |
| 20260509193005 | 65 | 316 | 4.0 | 7.0 | 0.00 | 0.00 | 0.00 | 59 | 919.9 |
| 20260509191505 | 64 | 285 | 5.0 | 8.0 | 0.00 | 0.00 | 0.00 | 59 | 919.9 |
| 20260509191006 | 65 | 331 | 4.0 | 9.0 | 0.00 | 0.00 | 0.00 | 59 | 919.9 |
| 20260509190506 | 65 | 313 | 3.0 | 9.0 | 0.00 | 0.00 | 0.00 | 60 | 920.0 |
| 20260509184005 | 65 | 310 | 4.0 | 8.0 | 0.00 | 0.00 | 0.00 | 58 | 920.0 |
| 20260509183506 | 65 | 302 | 5.0 | 10.0 | 0.00 | 0.00 | 0.00 | 57 | 920.0 |
| 20260509183005 | 65 | 298 | 5.0 | 10.0 | 0.00 | 0.00 | 0.00 | 57 | 920.0 |
| 20260509181506 | 65 | 278 | 4.0 | 9.0 | 0.00 | 0.00 | 0.00 | 58 | 920.1 |
| 20260509181005 | 65 | 310 | 6.0 | 10.0 | 0.00 | 0.00 | 0.00 | 59 | 920.1 |
| 20260509180505 | 64 | 341 | 6.0 | 9.0 | 0.00 | 0.00 | 0.00 | 58 | 920.1 |
| 20260509180005 | 64 | 295 | 4.0 | 10.0 | 0.00 | 0.00 | 0.00 | 59 | 919.9 |